User: anonymous   Login
Location: Unspecified
(0.0000°N, 0.0000°E)
Time: 07:04:49
(UTC+02:00)
Language:

Gbstr 26 Del rocket - Orbit

View from above orbital plane
View from above orbital plane
View from above satellite
View from above satellite

Ground track
Ground track

The orbit data is extracted from the following two-line orbital elements,

1 25876U 99041E   17141.85882829 -.00000051 +00000-0 +31172-4 0  9990
2 25876 051.7682 060.7441 0531509 311.3816 044.2548 14.04053727910906
Epoch (UTC): 21 May 2017 20:36:42
Eccentricity: 0.0531509
inclination: 51.7682°
perigee height: 494 km
apogee height: 1265 km
right ascension of ascending node: 60.7441°
argument of perigee: 311.3816°
revolutions per day: 14.04053727
mean anomaly at epoch: 44.2548°
orbit number at epoch: 91090

The dashed part of the orbit path shows where the satellite is in the earth's shadow,  

DLR